| time (UTC) | temp F | wind direction | speed MPH | gust MPH | rain 1hr in | rain 24hr in | rain mn in | humidity % | barometer mb |
| 20260505100051 | 79 | 98 | 0.0 | 5.0 | 0.00 | 0.05 | 0.00 | 85 | 1018.4 |
| 20260505094606 | 79 | 140 | 0.0 | 10.0 | 0.00 | 0.05 | 0.00 | 85 | 1018.4 |
| 20260505093055 | 79 | 96 | 0.0 | 4.0 | 0.00 | 0.05 | 0.00 | 85 | 1018.2 |
| 20260505091547 | 79 | 132 | 0.0 | 6.0 | 0.00 | 0.05 | 0.00 | 85 | 1018.1 |
| 20260505090048 | 79 | 140 | 0.0 | 8.0 | 0.00 | 0.05 | 0.00 | 84 | 1017.8 |
| 20260505084553 | 79 | 155 | 0.0 | 4.0 | 0.00 | 0.05 | 0.00 | 84 | 1017.7 |
| 20260505083056 | 79 | 166 | 0.0 | 7.0 | 0.00 | 0.05 | 0.00 | 84 | 1017.5 |
| 20260505081555 | 79 | 225 | 2.0 | 8.0 | 0.00 | 0.05 | 0.00 | 84 | 1017.5 |
| 20260505080049 | 79 | 154 | 0.0 | 8.0 | 0.00 | 0.05 | 0.00 | 84 | 1017.4 |
| 20260505074542 | 80 | 120 | 0.0 | 10.0 | 0.00 | 0.05 | 0.00 | 84 | 1017.2 |
| 20260505073044 | 80 | 146 | 1.0 | 8.0 | 0.00 | 0.05 | 0.00 | 83 | 1017.2 |
| 20260505071547 | 80 | 75 | 1.0 | 9.0 | 0.00 | 0.05 | 0.00 | 83 | 1017.3 |
| 20260505070038 | 80 | 128 | 1.0 | 9.0 | 0.00 | 0.05 | 0.00 | 83 | 1017.3 |
| 20260505064537 | 80 | 72 | 2.0 | 9.0 | 0.00 | 0.05 | 0.00 | 83 | 1017.4 |
| 20260505063034 | 80 | 121 | 3.0 | 13.0 | 0.00 | 0.05 | 0.00 | 83 | 1017.5 |
| 20260505061534 | 80 | 82 | 4.0 | 10.0 | 0.00 | 0.05 | 0.00 | 84 | 1017.5 |
| 20260505060036 | 80 | 86 | 6.0 | 12.0 | 0.00 | 0.05 | 0.00 | 84 | 1017.6 |
| 20260505054530 | 80 | 184 | 3.0 | 14.0 | 0.00 | 0.05 | 0.00 | 84 | 1017.6 |
| 20260505053028 | 80 | 119 | 3.0 | 15.0 | 0.00 | 0.05 | 0.00 | 84 | 1017.8 |
| 20260505051527 | 80 | 143 | 4.0 | 15.0 | 0.00 | 0.05 | 0.00 | 84 | 1017.9 |
| 20260505041520 | 80 | 138 | 2.0 | 11.0 | 0.00 | 0.05 | 0.00 | 85 | 1018.3 |
| 20260505040018 | 79 | 188 | 0.0 | 7.0 | 0.00 | 0.05 | 0.00 | 86 | 1018.4 |
| 20260505034516 | 79 | 186 | 3.0 | 11.0 | 0.00 | 0.05 | 0.05 | 85 | 1018.4 |
| 20260505033022 | 80 | 227 | 0.0 | 7.0 | 0.00 | 0.05 | 0.05 | 85 | 1018.5 |
| 20260505031517 | 80 | 169 | 0.0 | 7.0 | 0.01 | 0.05 | 0.05 | 85 | 1018.8 |
| 20260505030015 | 80 | 178 | 2.0 | 7.0 | 0.01 | 0.05 | 0.05 | 84 | 1018.7 |
| 20260505024514 | 81 | 90 | 2.0 | 10.0 | 0.01 | 0.05 | 0.05 | 83 | 1018.8 |
| 20260505023014 | 81 | 219 | 1.0 | 6.0 | 0.00 | 0.04 | 0.04 | 82 | 1018.8 |
| 20260505021515 | 81 | 209 | 0.0 | 7.0 | 0.00 | 0.04 | 0.04 | 82 | 1018.8 |
| 20260505020017 | 81 | 237 | 0.0 | 8.0 | 0.00 | 0.04 | 0.04 | 81 | 1018.8 |
| 20260505014518 | 81 | 217 | 3.0 | 7.0 | 0.00 | 0.04 | 0.04 | 81 | 1018.7 |
| 20260505013011 | 81 | 129 | 0.0 | 3.0 | 0.00 | 0.04 | 0.04 | 81 | 1018.6 |
| 20260505011512 | 81 | 188 | 1.0 | 6.0 | 0.00 | 0.04 | 0.04 | 81 | 1018.7 |
| 20260505004515 | 81 | 217 | 2.0 | 9.0 | 0.00 | 0.04 | 0.04 | 80 | 1018.4 |
| 20260505003008 | 81 | 196 | 4.0 | 10.0 | 0.00 | 0.04 | 0.04 | 80 | 1017.9 |
| 20260505001509 | 81 | 211 | 2.0 | 10.0 | 0.00 | 0.04 | 0.04 | 80 | 1017.8 |
| 20260505000011 | 82 | 157 | 2.0 | 7.0 | 0.00 | 0.04 | 0.04 | 81 | 1017.6 |
| 20260504234507 | 82 | 223 | 1.0 | 9.0 | 0.00 | 0.04 | 0.04 | 80 | 1017.5 |
| 20260504233007 | 82 | 150 | 1.0 | 6.0 | 0.00 | 0.04 | 0.04 | 80 | 1017.4 |
| 20260504231506 | 82 | 175 | 1.0 | 7.0 | 0.00 | 0.04 | 0.04 | 80 | 1017.2 |
| 20260504230006 | 82 | 144 | 2.0 | 8.0 | 0.00 | 0.04 | 0.04 | 80 | 1017.2 |
| 20260504224505 | 82 | 146 | 3.0 | 8.0 | 0.00 | 0.04 | 0.04 | 80 | 1017.2 |
| 20260504223005 | 82 | 227 | 2.0 | 6.0 | 0.00 | 0.04 | 0.04 | 80 | 1016.9 |
| 20260504221505 | 82 | 207 | 0.0 | 10.0 | 0.00 | 0.04 | 0.04 | 80 | 1016.9 |
| 20260504220004 | 83 | 243 | 1.0 | 7.0 | 0.00 | 0.04 | 0.04 | 80 | 1016.6 |
| 20260504214503 | 83 | 159 | 3.0 | 10.0 | 0.00 | 0.04 | 0.04 | 79 | 1016.4 |
| 20260504213004 | 83 | 196 | 5.0 | 12.0 | 0.00 | 0.04 | 0.04 | 79 | 1016.1 |
| 20260504211506 | 84 | 134 | 2.0 | 9.0 | 0.00 | 0.04 | 0.04 | 78 | 1016.0 |
| 20260504210001 | 85 | 157 | 5.0 | 12.0 | 0.00 | 0.04 | 0.04 | 76 | 1016.0 |
| 20260504204625 | 86 | 84 | 4.0 | 13.0 | 0.00 | 0.04 | 0.04 | 76 | 1016.0 |
| 20260504203135 | 86 | 83 | 3.0 | 12.0 | 0.00 | 0.04 | 0.04 | 76 | 1015.9 |
| 20260504201559 | 87 | 69 | 5.0 | 10.0 | 0.00 | 0.04 | 0.04 | 77 | 1016.0 |
| 20260504200058 | 87 | 76 | 6.0 | 13.0 | 0.00 | 0.04 | 0.04 | 76 | 1016.1 |
| 20260504194556 | 89 | 44 | 5.0 | 13.0 | 0.00 | 0.04 | 0.04 | 75 | 1016.1 |
| 20260504193056 | 89 | 76 | 4.0 | 14.0 | 0.00 | 0.04 | 0.04 | 75 | 1016.3 |
| 20260504191558 | 89 | 86 | 5.0 | 15.0 | 0.00 | 0.04 | 0.04 | 74 | 1016.3 |
| 20260504190055 | 89 | 65 | 10.0 | 15.0 | 0.00 | 0.04 | 0.04 | 74 | 1016.6 |
| 20260504184554 | 89 | 63 | 9.0 | 14.0 | 0.00 | 0.04 | 0.04 | 74 | 1016.6 |
| 20260504183050 | 89 | 76 | 9.0 | 15.0 | 0.00 | 0.04 | 0.04 | 74 | 1016.9 |
| 20260504181550 | 89 | 82 | 7.0 | 14.0 | 0.00 | 0.04 | 0.04 | 74 | 1017.0 |
| 20260504180105 | 87 | 74 | 9.0 | 15.0 | 0.00 | 0.04 | 0.04 | 77 | 1017.0 |
| 20260504174548 | 86 | 60 | 4.0 | 15.0 | 0.00 | 0.04 | 0.04 | 79 | 1017.2 |
| 20260504173058 | 84 | 130 | 2.0 | 10.0 | 0.00 | 0.04 | 0.04 | 80 | 1017.5 |
| 20260504171548 | 83 | 159 | 4.0 | 10.0 | 0.00 | 0.04 | 0.04 | 80 | 1017.9 |